This demonstration page uses our WeatherBlox Daily Observations layout. Learn more.

Left ArrowRight Arrow

Hourly Observations for March 27, 2022

Temp ( °F °C ) Dew Point ( °F °C ) Humidity (%) Winds ( mph kmh ) Pressure ( in mb ) Visibility ( mi km ) Precip ( " mm )
12:53 am 00:53 Clear 31 -0.6 12 -11.1 45 45 ENE 15 24 29.95 1014 10 16 0.00 0.00
1:53 am 01:53 Clear 29 -1.7 11 -11.7 47 47 E 13 20 29.95 1014 10 16 0.00 0.00
2:53 am 02:53 Clear 27 -2.8 11 -11.7 51 51 E 12 19 29.94 1014 10 16 0.00 0.00
3:53 am 03:53 Clear 26 -3.3 11 -11.7 53 53 E 7 11 29.93 1014 10 16 0.00 0.00
4:53 am 04:53 Clear 26 -3.3 12 -11.1 55 55 Calm 29.93 1014 10 16 0.00 0.00
5:53 am 05:53 Clear 25 -3.9 11 -11.7 55 55 Calm 29.95 1014 10 16 0.00 0.00
6:53 am 06:53 Clear 24 -4.4 12 -11.1 60 60 Calm 29.95 1014 10 16 0.00 0.00
7:53 am 07:53 Sunny 23 -5 16 -8.9 74 74 Calm 29.96 1015 10 16 0.00 0.00
8:53 am 08:53 Sunny 30 -1.1 14 -10 51 51 ENE 3 6 29.94 1014 10 16 0.00 0.00
9:53 am 09:53 Sunny 33 0.6 15 -9.4 47 47 Calm 29.95 1014 10 16 0.00 0.00
10:53 am 10:53 Sunny 38 3.3 17 -8.3 43 43 Calm 29.93 1014 10 16 0.00 0.00
11:53 am 11:53 Sunny 46 7.8 19 -7.2 34 34 VRB 3 6 29.91 1013 10 16 0.00 0.00
12:53 pm 12:53 Sunny 50 10 19 -7.2 29 29 E 7 11 29.87 1012 10 16 0.00 0.00
1:53 pm 13:53 Sunny 57 13.9 22 -5.6 26 26 E 10 17 29.82 1010 10 16 0.00 0.00
2:53 pm 14:53 Sunny 63 17.2 23 -5 22 22 E 10 17 29.79 1009 10 16 0.00 0.00
3:53 pm 15:53 Sunny 64 17.8 24 -4.4 22 22 ENE 9 15 29.76 1008 10 16 0.00 0.00
4:53 pm 16:53 Sunny 65 18.3 24 -4.4 21 21 E 8 13 29.74 1007 10 16 0.00 0.00
5:53 pm 17:53 Sunny 62 16.7 23 -5 22 22 E 14 22 29.74 1007 10 16 0.00 0.00
6:53 pm 18:53 Sunny 59 15 23 -5 25 25 E 13 20 29.73 1007 10 16 0.00 0.00
7:53 pm 19:53 Clear 55 12.8 24 -4.4 30 30 E 13 20 29.73 1007 10 16 0.00 0.00
8:53 pm 20:53 Clear 51 10.6 24 -4.4 35 35 ENE 12 19 29.71 1006 10 16 0.00 0.00
9:53 pm 21:53 Clear 49 9.4 24 -4.4 38 38 ENE 8 13 29.70 1006 10 16 0.00 0.00
10:53 pm 22:53 Clear 45 7.2 25 -3.9 46 46 ENE 7 11 29.68 1005 10 16 0.00 0.00
11:53 pm 23:53 Clear 46 7.8 26 -3.3 46 46 ENE 12 19 29.65 1004 10 16 0.00 0.00

Powered by AerisWeather